Hourly Weather Barskoon

Today, 19 April, Monday

Time Temperature Precipitation Wind Pressure Humidity
00:00 +2°C° 0 mm 3 mps 588 mmHg 83%
01:00 +2°C° 0 mm 3 mps 587 mmHg 85%
02:00 +2°C° 0 mm 3 mps 587 mmHg 86%
03:00 +2°C° 0.6 mm 3 mps 588 mmHg 89%
04:00 +1°C° 0.6 mm 3 mps 588 mmHg 93%
05:00 +1°C° 0.6 mm 3 mps 588 mmHg 96%
06:00 +2°C° 0.2 mm 3 mps 588 mmHg 91%
07:00 +3°C° 0.2 mm 3 mps 588 mmHg 85%
08:00 +3°C° 0.2 mm 3 mps 588 mmHg 80%
09:00 +4°C° 0.1 mm 3 mps 588 mmHg 76%
10:00 +5°C° 0.1 mm 3 mps 588 mmHg 72%
11:00 +5°C° 0.1 mm 3 mps 588 mmHg 68%
12:00 +5°C° 0.1 mm 3 mps 587 mmHg 71%
13:00 +7°C° 0.1 mm 2 mps 587 mmHg 75%
14:00 +7°C° 0.1 mm 2 mps 587 mmHg 78%
15:00 +8°C° 0.1 mm 1 mps 587 mmHg 75%
16:00 +8°C° 0.1 mm 1 mps 587 mmHg 72%
17:00 +7°C° 0.1 mm 0 mps 587 mmHg 69%
18:00 +6°C° 0 mm 0 mps 587 mmHg 70%
19:00 +7°C° 0 mm 1 mps 587 mmHg 72%
20:00 +6°C° 0 mm 1 mps 587 mmHg 73%
21:00 +6°C° 0 mm 1 mps 586 mmHg 73%
22:00 +5°C° 0 mm 1 mps 586 mmHg 73%
23:00 +5°C° 0 mm 1 mps 586 mmHg 73%

Tomorrow, 20 April, Tuesday

Time Temperature Precipitation Wind Pressure Humidity
00:00 +5°C° 0 mm 1 mps 586 mmHg 72%
01:00 +4°C° 0 mm 1 mps 585 mmHg 70%
02:00 +3°C° 0 mm 2 mps 585 mmHg 69%
03:00 +3°C° 0 mm 2 mps 585 mmHg 68%
04:00 +2°C° 0 mm 2 mps 585 mmHg 68%
05:00 +2°C° 0 mm 2 mps 584 mmHg 67%
06:00 +4°C° 0 mm 2 mps 585 mmHg 61%
07:00 +5°C° 0 mm 2 mps 585 mmHg 56%
08:00 +6°C° 0 mm 2 mps 585 mmHg 51%
09:00 +7°C° 0 mm 2 mps 585 mmHg 47%
10:00 +9°C° 0 mm 2 mps 584 mmHg 44%
11:00 +11°C° 0 mm 1 mps 584 mmHg 41%
12:00 +11°C° 0 mm 1 mps 584 mmHg 39%
13:00 +11°C° 0 mm 1 mps 584 mmHg 37%
14:00 +12°C° 0 mm 1 mps 584 mmHg 35%
15:00 +11°C° 0 mm 1 mps 584 mmHg 39%
16:00 +10°C° 0 mm 2 mps 583 mmHg 42%
17:00 +9°C° 0 mm 2 mps 583 mmHg 45%
18:00 +9°C° 0 mm 1 mps 583 mmHg 49%
19:00 +9°C° 0 mm 1 mps 583 mmHg 52%
20:00 +8°C° 0 mm 1 mps 583 mmHg 56%
21:00 +7°C° 0 mm 1 mps 583 mmHg 58%
22:00 +6°C° 0 mm 2 mps 582 mmHg 59%
23:00 +5°C° 0 mm 2 mps 582 mmHg 61%

Day after tomorrow, 21 April, Wednesday

Time Temperature Precipitation Wind Pressure Humidity
00:00 +5°C° 0 mm 2 mps 582 mmHg 63%
01:00 +5°C° 0 mm 2 mps 582 mmHg 64%
02:00 +4°C° 0 mm 2 mps 581 mmHg 66%
03:00 +3°C° 0 mm 3 mps 581 mmHg 68%
04:00 +3°C° 0 mm 3 mps 581 mmHg 69%
05:00 +2°C° 0 mm 3 mps 581 mmHg 70%
06:00 +4°C° 0 mm 3 mps 581 mmHg 65%
07:00 +6°C° 0 mm 2 mps 581 mmHg 60%
08:00 +7°C° 0 mm 2 mps 582 mmHg 55%
09:00 +8°C° 0 mm 2 mps 582 mmHg 53%
10:00 +9°C° 0 mm 2 mps 582 mmHg 50%
11:00 +9°C° 0 mm 2 mps 581 mmHg 47%
12:00 +8°C° 0.2 mm 4 mps 582 mmHg 56%
13:00 +7°C° 0.2 mm 6 mps 582 mmHg 65%
14:00 +5°C° 0.2 mm 8 mps 582 mmHg 74%
15:00 +5°C° 0.2 mm 7 mps 582 mmHg 77%
16:00 +4°C° 0.2 mm 7 mps 582 mmHg 79%
17:00 +3°C° 0.2 mm 7 mps 583 mmHg 82%
18:00 +2°C° 0.1 mm 6 mps 583 mmHg 82%
19:00 +2°C° 0.1 mm 5 mps 583 mmHg 83%
20:00 +1°C° 0.1 mm 4 mps 584 mmHg 84%
21:00 +1°C° 0.1 mm 4 mps 584 mmHg 84%
22:00 +1°C° 0.1 mm 3 mps 584 mmHg 85%
23:00 +1°C° 0.1 mm 3 mps 584 mmHg 86%

22 April, Thursday

Time Temperature Precipitation Wind Pressure Humidity
00:00 +1°C° 0.2 mm 3 mps 584 mmHg 88%
01:00 0°C° 0.2 mm 4 mps 584 mmHg 90%
02:00 0°C° 0.2 mm 4 mps 584 mmHg 91%
03:00 -1°C° 0.2 mm 4 mps 584 mmHg 92%
04:00 -1°C° 0.2 mm 4 mps 584 mmHg 93%
05:00 -1°C° 0.2 mm 5 mps 584 mmHg 93%
06:00 -1°C° 0.2 mm 5 mps 584 mmHg 90%
07:00 -1°C° 0.2 mm 5 mps 585 mmHg 87%
08:00 -1°C° 0.2 mm 5 mps 585 mmHg 84%
09:00 -1°C° 0.1 mm 5 mps 585 mmHg 82%
10:00 0°C° 0.1 mm 5 mps 585 mmHg 81%
11:00 0°C° 0.1 mm 5 mps 585 mmHg 79%
12:00 0°C° 0.2 mm 5 mps 586 mmHg 76%
13:00 0°C° 0.2 mm 5 mps 586 mmHg 73%
14:00 +1°C° 0.2 mm 5 mps 586 mmHg 71%
15:00 0°C° 0.2 mm 5 mps 586 mmHg 72%
16:00 -1°C° 0.2 mm 5 mps 586 mmHg 73%
17:00 -2°C° 0.2 mm 6 mps 587 mmHg 74%
18:00 -3°C° 0.3 mm 6 mps 587 mmHg 76%
19:00 -4°C° 0.3 mm 5 mps 587 mmHg 77%
20:00 -5°C° 0.3 mm 5 mps 588 mmHg 79%
21:00 -6°C° 0.2 mm 5 mps 588 mmHg 75%
22:00 -6°C° 0.2 mm 6 mps 588 mmHg 71%
23:00 -8°C° 0.2 mm 6 mps 588 mmHg 67%

23 April, Friday

Time Temperature Precipitation Wind Pressure Humidity
00:00 -8°C° 0.4 mm 5 mps 588 mmHg 68%
01:00 -8°C° 0.4 mm 5 mps 588 mmHg 70%
02:00 -9°C° 0.4 mm 4 mps 588 mmHg 72%
03:00 -10°C° 0 mm 5 mps 588 mmHg 70%
04:00 -10°C° 0 mm 5 mps 589 mmHg 68%
05:00 -10°C° 0 mm 5 mps 589 mmHg 66%
06:00 -8°C° 0 mm 5 mps 589 mmHg 57%
07:00 -7°C° 0 mm 4 mps 589 mmHg 47%
08:00 -5°C° 0 mm 4 mps 589 mmHg 37%
09:00 -4°C° 0 mm 4 mps 589 mmHg 37%
10:00 -3°C° 0 mm 4 mps 589 mmHg 37%
11:00 -2°C° 0 mm 4 mps 589 mmHg 37%
12:00 -2°C° 0 mm 4 mps 589 mmHg 36%
13:00 -1°C° 0 mm 4 mps 589 mmHg 35%
14:00 0°C° 0 mm 3 mps 589 mmHg 34%
15:00 0°C° 0 mm 3 mps 589 mmHg 34%
16:00 0°C° 0 mm 3 mps 589 mmHg 33%
17:00 -1°C° 0 mm 2 mps 589 mmHg 33%
18:00 -2°C° 0 mm 2 mps 589 mmHg 37%
19:00 -1°C° 0 mm 1 mps 589 mmHg 42%
20:00 -2°C° 0 mm 1 mps 590 mmHg 46%
21:00 -2°C° 0 mm 1 mps 590 mmHg 46%
22:00 -5°C° 0 mm 2 mps 589 mmHg 46%
23:00 -5°C° 0 mm 2 mps 589 mmHg 46%

24 April, Saturday

Time Temperature Precipitation Wind Pressure Humidity
00:00 -5°C° 0 mm 2 mps 589 mmHg 47%
01:00 -5°C° 0 mm 2 mps 589 mmHg 48%
02:00 -5°C° 0 mm 2 mps 588 mmHg 49%
03:00 -6°C° 0 mm 3 mps 588 mmHg 50%
04:00 -6°C° 0 mm 3 mps 588 mmHg 51%
05:00 -6°C° 0 mm 3 mps 588 mmHg 53%
06:00 -4°C° 0 mm 3 mps 588 mmHg 52%
07:00 -1°C° 0 mm 3 mps 588 mmHg 52%
08:00 +1°C° 0 mm 2 mps 588 mmHg 52%
09:00 +2°C° 0 mm 3 mps 588 mmHg 48%
10:00 +3°C° 0 mm 3 mps 588 mmHg 44%
11:00 +4°C° 0 mm 3 mps 588 mmHg 39%
12:00 +5°C° 0 mm 3 mps 588 mmHg 39%
13:00 +5°C° 0 mm 3 mps 588 mmHg 39%
14:00 +7°C° 0 mm 3 mps 588 mmHg 40%
15:00 +5°C° 0 mm 3 mps 588 mmHg 42%
16:00 +6°C° 0 mm 2 mps 588 mmHg 45%
17:00 +6°C° 0 mm 2 mps 588 mmHg 47%
18:00 +5°C° 0 mm 2 mps 588 mmHg 51%
19:00 +4°C° 0 mm 2 mps 588 mmHg 54%
20:00 +3°C° 0 mm 2 mps 589 mmHg 57%
21:00 +2°C° 0 mm 3 mps 588 mmHg 59%
22:00 +2°C° 0 mm 3 mps 588 mmHg 60%
23:00 +3°C° 0 mm 3 mps 588 mmHg 61%
Show more